Weather in Uspenka

Ukraine / Sumi District     51°07′25″N   33°43′51″E
temp.,
°C
wind,
m/s
gust,
m/s
humid.,
%
clouds,
%
prec.,
mm/h
press.,
hPa
HPBL,
m
7 march, sun
sun723:00−9wnw34910 0.0 102385
02:00−9wsw47900 0.0 1022125
05:00−9sw612810 0.0 1020239
08:00−6sw8168238 0.0 1017472
11:00−2wsw101682100 0.0 1014946
14:000wsw111787100 0.1 10111365
17:000wsw91684100 0.1 10091038
20:00−1wsw8168796 0.1 1008761
8 march, mon
mon823:00−1wsw71493100 0.2 1007750
02:00−1wsw71396100 0.9 1007726
05:00−2wsw71394100 0.4 1006672
08:00−2w51090100 1.1 1007990
11:00−2wnw698568 0.2 10091008
14:00−2wnw688184 0.3 10091017
17:00−4w378733 0.1 1010167
20:00−5wsw359361 0.1 1011127
9 march, tue
tue923:00−6nw599567 0.1 1012252
02:00−9nw499336 0.1 1014219
05:00−10nw499515 0.0 1016229
08:00−10nw589350 0.0 1018332
11:00−8nnw578678 0.0 1020610
14:00−6nw578184 0.0 1021794
17:00−8nw238753 0.0 102268
20:00−11nnw238929 0.0 102431
10 march, wed
wed1023:00−12nnw22890 0.0 102521
02:00−13nnw12890 0.0 102620
05:00−13n11895 0.0 102620
08:00−11e118743 0.0 102751
11:00−8se1178100 0.0 1027307
14:00−6se117168 0.0 1026495
17:00−8se12820 0.0 102521
20:00−10ese12830 0.0 102621
11 march, thu
thu1123:00−11se12810 0.0 102721
02:00−11sse127917 0.0 102721
05:00−10sse127896 0.0 102721
08:00−8se228097 0.0 102762
11:00−4s357433 0.0 1027398
14:00−3ssw356924 0.0 1027906
17:00−5sse12750 0.0 102621
20:00−8sse33750 0.0 102733